www.pogodaiklimat.ru

Погода и климат >> Архив погоды >> Канада >> Нунавут >> Кам Фор


ПОГОДА в Кам Фор

  • Прогноз погоды в Кам Фор
  • Монитор погоды в Кам Фор

АРХИВ ПОГОДЫ в Кам Фор

Время (UTC), дата Ветер
(напр.,м/с)
 
Видим.   Явления Облачность Т
(С)
Тd
(С)
f
(%)
Тe
(С)
Тes
(С)
Комфортность P
(гПа)
Po
(гПа)
Тmin
(С)
Tmax
(С)
R
(мм)
R24
(мм)
S
(см)
00 14.03 СЗ 6 н/о н/о -24.6 -36 -36 опасность
обморожения
1018.8 975.2 -25.7 -21.7
03 14.03 З 5 н/о н/о -24.2 -35 -35 опасность
обморожения
1019.9 976.2
06 14.03 З 6 н/о н/о -23.8 -35 -35 опасность
обморожения
1020.1 976.5 -25.7 -21.7
09 14.03 З 6 н/о н/о -23.8 -36 -36 опасность
обморожения
1020.9 977.2
12 14.03 З 3 н/о н/о -24.2 -33 -33 опасность
обморожения
1022.0 978.2 -24.9 -21.7
15 14.03 СЗ 3 н/о н/о -23.3 -32 -32 опасность
обморожения
1022.1 978.4
18 14.03 С 4 н/о н/о -22.7 -32 -32 опасность
обморожения
1022.3 978.6 -24.9 -22.6
21 14.03 СВ 6 н/о н/о -24.4 -37 -37 опасность
обморожения
1022.6 978.8
00 15.03 С 8 н/о н/о -28.0 -43 -43 опасность
обморожения
1022.8 978.8 -28.0 -22.6
03 15.03 СВ 7 н/о н/о -30.5 -45 -45 опасность
обморожения
1023.3 979.2
06 15.03 С 8 н/о н/о -31.8 -48 -48 опасность
обморожения
1022.7 978.6 -32.0 -22.6 61
09 15.03 С 7 н/о н/о -32.7 -48 -48 опасность
обморожения
1023.3 979.0
12 15.03 С 7 н/о н/о -33.6 -49 -49 опасность
обморожения
1024.1 979.5 -33.7 -22.6
15 15.03 С 8 н/о н/о -31.1 -47 -47 опасность
обморожения
1024.7 980.1
18 15.03 С 6 н/о н/о -28.7 -42 -42 опасность
обморожения
1024.8 980.2 -33.7 -28.6
21 15.03 СЗ 6 н/о н/о -29.7 -43 -43 опасность
обморожения
1025.5 980.8
00 16.03 СЗ 6 н/о н/о -29.3 -43 -43 опасность
обморожения
1026.0 981.2 -33.7 -28.6
03 16.03 СЗ 5 н/о н/о -29.9 -42 -42 опасность
обморожения
1025.5 980.9
06 16.03 СЗ 5 н/о н/о -31.1 -44 -44 опасность
обморожения
1025.0 980.4 -33.7 -28.6 70
09 16.03 СЗ 6 н/о н/о -30.4 -44 -44 опасность
обморожения
1025.2 980.6
12 16.03 З 5 н/о н/о -31.5 -45 -45 опасность
обморожения
1025.3 980.7 -31.7 -28.6
15 16.03 З 5 н/о н/о -29.6 -42 -42 опасность
обморожения
1024.6 980.1
18 16.03 СЗ 8 н/о н/о -29.8 -45 -45 опасность
обморожения
1024.5 979.9 -31.7 -29.3
21 16.03 З 6 н/о н/о -28.4 -42 -42 опасность
обморожения
1024.5 980.0
00 17.03 СЗ 5 н/о н/о -29.2 -42 -42 опасность
обморожения
1024.5 979.9 -31.7 -28.3
03 17.03 СЗ 5 н/о н/о -28.9 -41 -41 опасность
обморожения
1023.2 978.8
06 17.03 З 5 н/о н/о -28.7 -41 -41 опасность
обморожения
1022.5 978.1 -31.7 -28.2 20
09 17.03 З 4 н/о н/о -27.7 -39 -39 опасность
обморожения
1021.8 977.6
12 17.03 З 4 н/о н/о -27.8 -39 -39 опасность
обморожения
1021.6 977.4 -30.0 -28.2
15 17.03 СЗ 7 н/о н/о -27.3 -41 -41 опасность
обморожения
1020.9 976.7
18 17.03 СЗ 4 н/о н/о -26.0 -36 -36 опасность
обморожения
1021.0 976.9 -30.0 -26.0
21 17.03 С 3 н/о н/о -23.4 -31 -31 опасность
обморожения
1021.3 977.4
00 18.03 С 7 н/о н/о -27.8 -41 -41 опасность
обморожения
1021.8 977.6 -29.1 -20.5
03 18.03 СЗ 6 н/о н/о -29.5 -43 -43 опасность
обморожения
1021.5 977.3
06 18.03 СЗ 5 н/о н/о -29.7 -42 -42 опасность
обморожения
1021.1 977.0 -30.0 -20.5 20
09 18.03 З 5 н/о н/о -29.1 -42 -42 опасность
обморожения
1020.1 976.2
12 18.03 СЗ 6 н/о н/о -29.6 -43 -43 опасность
обморожения
1019.4 975.2 -30.3 -20.5
15 18.03 З 5 н/о н/о -29.5 -42 -42 опасность
обморожения
1017.3 973.1
18 18.03 СЗ 6 н/о н/о -27.6 -41 -41 опасность
обморожения
1015.7 971.7 -30.3 -27.5
21 18.03 СЗ 6 н/о н/о -25.8 -38 -38 опасность
обморожения
1013.7 969.9
00 19.03 СЗ 3 н/о н/о -27.2 -36 -36 опасность
обморожения
1012.4 968.6 -30.3 -25.7
03 19.03 СВ 7 н/о н/о -29.3 -44 -44 опасность
обморожения
1011.9 968.0
06 19.03 СВ 6 н/о н/о -30.2 -44 -44 опасность
обморожения
1012.2 968.3 -30.4 -25.7 180
09 19.03 С 7 н/о н/о -31.0 -46 -46 опасность
обморожения
1013.1 969.2
12 19.03 С 6 н/о н/о -32.5 -46 -46 опасность
обморожения
1014.9 970.8 -32.5 -25.7
15 19.03 С 7 н/о н/о -30.4 -45 -45 опасность
обморожения
1016.1 971.9
18 19.03 СЗ 8 н/о н/о -29.8 -45 -45 опасность
обморожения
1016.9 972.7 -32.8 -29.8
21 19.03 СЗ 7 н/о н/о -27.2 -41 -41 опасность
обморожения
1018.2 974.0
00 20.03 З 8 н/о н/о -26.4 -41 -41 опасность
обморожения
1017.6 973.4 -32.8 -26.3
03 20.03 З 8 н/о н/о -26.7 -41 -41 опасность
обморожения
1015.2 971.2
06 20.03 З 4 н/о н/о -26.1 -36 -36 опасность
обморожения
1012.7 968.9 -32.8 -25.9 191
09 20.03 ЮЗ 5 н/о н/о -25.8 -37 -37 опасность
обморожения
1009.6 966.1
12 20.03 Ю 2 н/о н/о -23.1 -28 -28 1006.2 963.0 -26.9 -25.9
15 20.03 Ю 4 н/о н/о -22.1 -32 -32 опасность
обморожения
1002.9 959.9
18 20.03 Ю 4 н/о н/о -19.9 -29 -29 1000.7 958.0 -29.7 -19.9

 

Местоположение метеостанции Кам Фор (Нунавут, Канада): широта 68.43 долгота -89.71 высота над уровнем моря 325 м.

В архиве по умолчанию представлена погода в Кам Фор за последнюю неделю. Архивные данные за месяц целиком и за предыдущие месяцы, начиная с января 2011 года, Вы можете получить, выбрав интересующий диапазон дат из раскрывающегося списка и нажав кнопку "Ввод!".


*Определитесь, кто Вы:
робот инопланетянин человек

Внимание! Время в таблицах - всемирное. Для получения местного времени необходимо прибавить поправку, которая равна -6 ч.

Смотрите также архив погоды в соседних городах и на ближайших метеорологических станциях:

Погода в Кугааруке (Нунавут, Канада) (12 км)
Погода в Шеперд-Бее (Нунавут, Канада) (157 км)
Погода в Талойоаке (Нунавут, Канада) (198 км)
Погода в Джойа Хейвен (Нунавут, Канада) (251 км)
Погода в Вейджер Бэй (Нунавут, Канада) (284 км)
Погода в Холл Бич (Нунавут, Канада) (345 км)
Погода в Глеичене (Альберта, Канада) (392 км)
Погода на Острове Хат (Нунавут, Канада) (421 км)
Погода на Острове Роули (Нунавут, Канада) (436 км)
Погода в Бейкер Лейк (Нунавут, Канада) (536 км)

Пояснения к столбцам:

Ветер - указаны скорость ветра в м/с - средняя за 10 мин, порывы в срок и между сроками (в фигурных скобках) и направление, откуда дует ветер: С - северный, СВ - северо-восточный, В - восточный, ЮВ - юго-восточный, Ю - южный, ЮЗ - юго-западный, З - западный, СЗ - северо-западный.
Видимость - горизонтальная дальность видимости в метрах или километрах. При видимости от 1 до 10 км при отсутствии осадков обычно наблюдается дымка, при ухудшении видимости до 1 км и менее - туман. В сухую погоду видимость может ухудшаться дымом, пылью или мглою.
Явления - указаны атмосферные явления, наблюдавшиеся в срок или в последний час перед сроком; фигурными скобками обозначены явления, наблюдавшиеся между сроками (за 1-3 часа до срока); квадратными скобками обозначены град или гололедные отложения с указанием их диаметра в мм.
Облачность - указаны через наклонную черту общая и нижняя облачность в баллах и высота нижней границы облаков в метрах; квадратными скобками обозначены формы облаков: Ci - перистые, Cs - перисто-слоистые, Cc - перисто-кучевые, Ac - высококучевые, As - высокослоистые, Sc - слоисто-кучевые, Ns - слоисто-дождевые, Cu - кучевые, Cb - кучево-дождевые. Подробнее классификацию облаков см. в Атласе облаков (PDF).
T - Температура воздуха - температура, измеренная на высоте 2 м над землей.
Td - Температура точки росы - температура, при понижении до которой содержащийся в воздухе водяной пар достигнет насыщения.
f - Относительная влажность воздуха - влажноcть воздуха, измеренная на высоте 2 м над землей.
Te - Эффективная температура - температура, которую ощущает одетый по сезону человек в тени. Характеристика душности погоды. При расчете учитывается влияние влажности воздуха и скорости ветра на теплоощущения человека.
Tes - Эффективная температура на солнце - температура, которую ощущает человек, с поправкой на солнечный нагрев. Характеристика знойности погоды. Зависит от высоты солнца над горизонтом, облачности и скорости ветра. Ночью, в пасмурную погоду, а также при ветре 12 м/с и более поправка равна нулю.
P - Атмосферное давление - приведенное к уровню моря атмосферное давление.
Po - Атмосферное давление - измеренное на уровне метеостанции атмосферное давление.
Tmin - Минимальная температура - минимум температуры воздуха на высоте 2 м над землей.
Tmax - Максимальная температура - максимум температуры воздуха на высоте 2 м над землей.
R - Количество осадков - Количество выпавших осадков за период времени, мм. При наведении курсора мыши на число - период времени, за который выпало указанное количество осадков.
R24 - Количество осадков - Количество выпавших осадков за 24 часа, мм.
S - Снежный покров - Высота снежного покрова, см. При наведении курсора мыши на число - состояние снежного покрова и степень покрытия местности в баллах.